• In Belarus
  • List of Countries
  • For 7 days
  • Water Temperature
  • Satellite Maps
  • Weather Map
  • Weather Widgets
  • user-avatar
    Login

    Hourly Weather Artashat

    Today, 27 May, Sunday

    Time Temperature Precipitation Wind Pressure Humidity
    00:00 +12°C° 0 mm 2 mps 603 mmHg 53%
    01:00 +12°C° 0 mm 1 mps 603 mmHg 54%
    02:00 +11°C° 0 mm 1 mps 603 mmHg 55%
    03:00 +11°C° 0 mm 1 mps 603 mmHg 56%
    04:00 +12°C° 0 mm 1 mps 604 mmHg 55%
    05:00 +13°C° 0 mm 1 mps 604 mmHg 54%
    06:00 +13°C° 0 mm 1 mps 605 mmHg 53%
    07:00 +15°C° 0 mm 1 mps 606 mmHg 46%
    08:00 +18°C° 0 mm 1 mps 606 mmHg 40%
    09:00 +19°C° 0 mm 1 mps 607 mmHg 34%
    10:00 +20°C° 0 mm 1 mps 608 mmHg 31%
    11:00 +21°C° 0 mm 1 mps 608 mmHg 29%
    12:00 +23°C° 0 mm 1 mps 608 mmHg 27%
    13:00 +23°C° 0 mm 2 mps 608 mmHg 26%
    14:00 +23°C° 0 mm 2 mps 608 mmHg 26%
    15:00 +23°C° 0 mm 2 mps 608 mmHg 26%
    16:00 +23°C° 0 mm 2 mps 608 mmHg 28%
    17:00 +21°C° 0 mm 2 mps 608 mmHg 31%
    18:00 +20°C° 0 mm 2 mps 608 mmHg 34%
    19:00 +19°C° 0 mm 2 mps 608 mmHg 39%
    20:00 +17°C° 0 mm 2 mps 608 mmHg 45%
    21:00 +15°C° 0 mm 2 mps 607 mmHg 50%
    22:00 +14°C° 0 mm 2 mps 607 mmHg 54%
    23:00 +13°C° 0 mm 1 mps 607 mmHg 59%

    Tomorrow, 28 May, Monday

    Time Temperature Precipitation Wind Pressure Humidity
    00:00 +13°C° 0 mm 1 mps 606 mmHg 63%
    01:00 +12°C° 0 mm 1 mps 606 mmHg 65%
    02:00 +12°C° 0 mm 1 mps 606 mmHg 66%
    03:00 +11°C° 0 mm 1 mps 605 mmHg 68%
    04:00 +12°C° 0 mm 1 mps 606 mmHg 65%
    05:00 +13°C° 0 mm 1 mps 606 mmHg 63%
    06:00 +13°C° 0 mm 1 mps 606 mmHg 61%
    07:00 +15°C° 0 mm 1 mps 607 mmHg 54%
    08:00 +18°C° 0 mm 1 mps 607 mmHg 48%
    09:00 +19°C° 0 mm 1 mps 607 mmHg 42%
    10:00 +20°C° 0 mm 1 mps 607 mmHg 39%
    11:00 +22°C° 0 mm 1 mps 607 mmHg 36%
    12:00 +23°C° 0 mm 2 mps 607 mmHg 33%
    13:00 +23°C° 0 mm 2 mps 607 mmHg 32%
    14:00 +24°C° 0 mm 2 mps 607 mmHg 31%
    15:00 +24°C° 0 mm 2 mps 606 mmHg 29%
    16:00 +24°C° 0 mm 2 mps 606 mmHg 31%
    17:00 +23°C° 0 mm 2 mps 606 mmHg 33%
    18:00 +21°C° 0 mm 2 mps 606 mmHg 35%
    19:00 +20°C° 0.1 mm 2 mps 605 mmHg 41%
    20:00 +19°C° 0.1 mm 1 mps 605 mmHg 47%
    21:00 +16°C° 0.1 mm 1 mps 605 mmHg 52%
    22:00 +15°C° 0.1 mm 1 mps 604 mmHg 54%
    23:00 +15°C° 0.1 mm 1 mps 604 mmHg 57%

    Day after tomorrow, 29 May, Tuesday

    Time Temperature Precipitation Wind Pressure Humidity
    00:00 +15°C° 0.1 mm 1 mps 604 mmHg 59%
    01:00 +14°C° 0 mm 1 mps 604 mmHg 60%
    02:00 +14°C° 0 mm 1 mps 603 mmHg 60%
    03:00 +13°C° 0 mm 1 mps 603 mmHg 61%
    04:00 +14°C° 0 mm 1 mps 603 mmHg 60%
    05:00 +15°C° 0 mm 1 mps 604 mmHg 59%
    06:00 +15°C° 0 mm 1 mps 604 mmHg 58%
    07:00 +16°C° 0 mm 1 mps 604 mmHg 53%
    08:00 +18°C° 0 mm 2 mps 604 mmHg 47%
    09:00 +19°C° 0 mm 2 mps 605 mmHg 42%
    10:00 +20°C° 0.1 mm 3 mps 605 mmHg 39%
    11:00 +21°C° 0.1 mm 3 mps 605 mmHg 37%
    12:00 +22°C° 0.1 mm 3 mps 605 mmHg 34%
    13:00 +22°C° 0.9 mm 3 mps 605 mmHg 37%
    14:00 +22°C° 0.9 mm 4 mps 605 mmHg 39%
    15:00 +21°C° 0.9 mm 4 mps 604 mmHg 41%
    16:00 +19°C° 2.9 mm 3 mps 604 mmHg 52%
    17:00 +16°C° 2.9 mm 3 mps 603 mmHg 63%
    18:00 +14°C° 2.9 mm 2 mps 602 mmHg 74%
    19:00 +14°C° 0.6 mm 2 mps 602 mmHg 76%
    20:00 +13°C° 0.6 mm 2 mps 603 mmHg 78%
    21:00 +13°C° 0.6 mm 1 mps 603 mmHg 80%
    22:00 +12°C° 0 mm 1 mps 603 mmHg 81%
    23:00 +12°C° 0 mm 1 mps 603 mmHg 83%

    30 May, Wednesday

    Time Temperature Precipitation Wind Pressure Humidity
    00:00 +12°C° 0 mm 1 mps 603 mmHg 84%
    01:00 +11°C° 0 mm 1 mps 602 mmHg 85%
    02:00 +11°C° 0 mm 1 mps 602 mmHg 86%
    03:00 +11°C° 0 mm 1 mps 602 mmHg 86%
    04:00 +11°C° 0 mm 1 mps 602 mmHg 83%
    05:00 +12°C° 0 mm 1 mps 602 mmHg 81%
    06:00 +12°C° 0 mm 1 mps 603 mmHg 78%
    07:00 +13°C° 0 mm 2 mps 603 mmHg 71%
    08:00 +15°C° 0 mm 2 mps 604 mmHg 63%
    09:00 +16°C° 0 mm 2 mps 604 mmHg 56%
    10:00 +18°C° 0 mm 2 mps 604 mmHg 51%
    11:00 +19°C° 0 mm 3 mps 605 mmHg 46%
    12:00 +20°C° 0 mm 3 mps 605 mmHg 41%
    13:00 +21°C° 0.1 mm 3 mps 605 mmHg 39%
    14:00 +21°C° 0.1 mm 3 mps 605 mmHg 37%
    15:00 +22°C° 0.1 mm 3 mps 605 mmHg 35%
    16:00 +21°C° 0.2 mm 3 mps 605 mmHg 38%
    17:00 +20°C° 0.2 mm 3 mps 604 mmHg 42%
    18:00 +20°C° 0.2 mm 3 mps 604 mmHg 45%
    19:00 +18°C° 0.4 mm 2 mps 604 mmHg 52%
    20:00 +16°C° 0.4 mm 2 mps 603 mmHg 58%
    21:00 +15°C° 0.4 mm 1 mps 603 mmHg 65%
    22:00 +14°C° 0.1 mm 1 mps 602 mmHg 67%
    23:00 +14°C° 0.1 mm 1 mps 602 mmHg 69%

    31 May, Thursday

    Time Temperature Precipitation Wind Pressure Humidity
    00:00 +13°C° 0.1 mm 1 mps 601 mmHg 70%
    01:00 +13°C° 0 mm 1 mps 601 mmHg 71%
    02:00 +12°C° 0 mm 1 mps 601 mmHg 72%
    03:00 +12°C° 0 mm 1 mps 600 mmHg 73%
    04:00 +12°C° 0 mm 1 mps 600 mmHg 71%
    05:00 +13°C° 0 mm 1 mps 601 mmHg 69%
    06:00 +14°C° 0 mm 1 mps 601 mmHg 67%
    07:00 +16°C° 0.1 mm 2 mps 601 mmHg 59%
    08:00 +17°C° 0.1 mm 2 mps 602 mmHg 51%
    09:00 +19°C° 0.1 mm 2 mps 602 mmHg 43%
    10:00 +20°C° 0 mm 3 mps 602 mmHg 40%
    11:00 +21°C° 0 mm 3 mps 602 mmHg 37%
    12:00 +22°C° 0 mm 3 mps 602 mmHg 34%
    13:00 +23°C° 0.1 mm 4 mps 602 mmHg 33%
    14:00 +23°C° 0.1 mm 4 mps 602 mmHg 32%
    15:00 +23°C° 0.1 mm 4 mps 602 mmHg 31%
    16:00 +22°C° 0.2 mm 4 mps 601 mmHg 33%
    17:00 +21°C° 0.2 mm 4 mps 601 mmHg 36%
    18:00 +21°C° 0.2 mm 5 mps 601 mmHg 38%
    19:00 +19°C° 0.1 mm 4 mps 601 mmHg 41%
    20:00 +17°C° 0.1 mm 4 mps 601 mmHg 45%
    21:00 +15°C° 0.1 mm 4 mps 601 mmHg 48%
    22:00 +14°C° 0 mm 3 mps 600 mmHg 50%
    23:00 +13°C° 0 mm 3 mps 600 mmHg 53%

    1 June, Friday

    Time Temperature Precipitation Wind Pressure Humidity
    00:00 +14°C° 0 mm 2 mps 600 mmHg 55%
    01:00 +13°C° 0 mm 2 mps 600 mmHg 56%
    02:00 +13°C° 0 mm 2 mps 599 mmHg 57%
    03:00 +12°C° 0 mm 2 mps 599 mmHg 58%
    04:00 +13°C° 0 mm 2 mps 599 mmHg 58%
    05:00 +13°C° 0 mm 2 mps 600 mmHg 58%
    06:00 +13°C° 0 mm 2 mps 600 mmHg 58%
    07:00 +15°C° 0 mm 2 mps 600 mmHg 52%
    08:00 +16°C° 0 mm 2 mps 601 mmHg 45%
    09:00 +18°C° 0 mm 2 mps 601 mmHg 39%
    10:00 +19°C° 0 mm 2 mps 601 mmHg 36%
    11:00 +20°C° 0 mm 3 mps 601 mmHg 32%
    12:00 +21°C° 0 mm 3 mps 601 mmHg 29%
    13:00 +21°C° 0 mm 4 mps 601 mmHg 28%
    14:00 +22°C° 0 mm 4 mps 601 mmHg 28%
    15:00 +22°C° 0 mm 5 mps 601 mmHg 27%
    16:00 +21°C° 0.1 mm 5 mps 601 mmHg 30%
    17:00 +20°C° 0.1 mm 5 mps 601 mmHg 34%
    18:00 +19°C° 0.1 mm 5 mps 601 mmHg 37%
    19:00 +18°C° 0 mm 4 mps 601 mmHg 43%
    20:00 +16°C° 0 mm 3 mps 600 mmHg 49%
    21:00 +13°C° 0 mm 3 mps 600 mmHg 56%
    22:00 +14°C° 0 mm 2 mps 600 mmHg 58%
    23:00 +13°C° 0 mm 2 mps 600 mmHg 61%
    Show more